Kosmos-1432

operational
NORAD ID: 13764 Int'l Des: 1983-002 Owner: GUKOS Country: SU
LEOCIRCULAR

Über Kosmos-1432

Beschreibung wird geladen...

Live-Position

3D-Globus wird geladen...

Nächste Überflüge

Höhenverlauf

Altitude vs Time

uPlot chart will show altitude changes over time

Zweizeiliger Elementsatz

1 13764U 83002D 26074.31983102 .00000013 00000-0 18935-3 0 9993
2 13764 74.0208 99.6047 0003629 233.7751 138.1911 12.49887105969123
Epoch: 15. März 2026 • Age: 9 hours

Aktueller Status

Höhe 1483.6 km
Geschwindigkeit 7.12 km/s
Subsatellitenpunkt -56.40°S, 117.41°W
Startdatum 19. Jan. 1983
Alter 43.1 years
Typ other

Technische Details

Klassifizierung Payload
Masse 60.00 kg
Trockenmasse 60.00 kg
Gesamtmasse 60.00 kg
Länge 0.80 m
Durchmesser 0.80 m
Spannweite 0.80 m
Form Poly
Hersteller NPOPM
Bus-Typ Strela-1 11F625
Phasenstatus In Orbit
Besitzer/Staat GUKOS/SU

Große Konstellationen

Loading constellations...